IW0GZ Weather Reports


Display with metric or nautical units.
time (UTC)temp
F
wind
direction
speed
MPH
gust
MPH
rain 1hr
in
rain 24hr
in
rain mn
in
humidity
%
barometer
mb
20260507220010 61 28 4.0 7.0 0.00 0.18 0.00 76 1013.4
20260507215003 62 39 4.0 9.0 0.00 0.19 0.18 77 1013.6
20260507214003 63 5 4.0 7.0 0.00 0.20 0.18 73 1013.7
20260507213004 63 358 3.0 7.0 0.00 0.20 0.18 73 1013.8
20260507212215 63 350 3.0 5.0 0.00 0.21 0.18 73 1013.9
20260507211003 63 11 3.0 5.0 0.00 0.22 0.18 73 1013.9
20260507210004 63 5 2.0 7.0 0.00 0.23 0.18 72 1013.9
20260507205004 64 352 2.0 3.0 0.00 0.24 0.18 70 1013.9
20260507204003 64 330 2.0 4.0 0.00 0.24 0.18 70 1014.0
20260507203215 66 327 2.0 4.0 0.00 0.24 0.18 69 1014.0
20260507202004 67 354 2.0 4.0 0.00 0.24 0.18 63 1014.0
20260507201003 67 10 3.0 5.0 0.00 0.24 0.18 63 1014.0
20260507200004 68 31 3.0 4.0 0.00 0.24 0.18 62 1014.0
20260507195003 68 24 2.0 4.0 0.00 0.24 0.18 61 1014.0
20260507194003 68 27 2.0 5.0 0.00 0.24 0.18 62 1014.0
20260507193008 68 39 2.0 4.0 0.00 0.24 0.18 61 1014.0
20260507192003 68 49 2.0 3.0 0.00 0.24 0.18 61 1014.0
20260507191217 68 54 2.0 3.0 0.00 0.24 0.18 60 1013.9
20260507190005 69 27 2.0 4.0 0.00 0.24 0.18 60 1013.9
20260507185214 69 9 1.0 4.0 0.00 0.24 0.18 60 1013.8
20260507184215 70 325 1.0 2.0 0.00 0.24 0.18 59 1013.9
20260507183216 70 259 1.0 2.0 0.00 0.24 0.18 58 1013.9
20260507182004 71 326 1.0 4.0 0.00 0.24 0.18 55 1014.0
20260507181003 71 327 1.0 4.0 0.00 0.24 0.18 53 1014.0
20260507180214 71 316 1.0 2.0 0.00 0.24 0.18 52 1014.0
20260507175003 72 325 1.0 4.0 0.00 0.24 0.18 50 1014.1
20260507174004 72 317 1.0 2.0 0.00 0.26 0.18 48 1014.0
20260507173217 72 326 1.0 3.0 0.00 0.27 0.18 47 1014.0
20260507172004 72 326 1.0 6.0 0.00 0.27 0.18 45 1014.1
20260507171003 73 330 1.0 3.0 0.00 0.27 0.18 44 1013.9
20260507170215 73 352 1.0 3.0 0.00 0.27 0.18 43 1013.9
20260507165215 73 352 2.0 4.0 0.00 0.27 0.18 44 1013.9
20260507164003 73 28 4.0 6.0 0.00 0.27 0.18 44 1013.9
20260507163003 73 33 2.0 6.0 0.00 0.27 0.18 45 1013.8
20260507162003 74 36 3.0 6.0 0.00 0.27 0.18 49 1013.8
20260507161003 74 30 2.0 6.0 0.00 0.27 0.18 48 1013.9
20260507160003 75 36 1.0 7.0 0.00 0.27 0.18 51 1013.8
20260507155003 75 26 2.0 5.0 0.00 0.27 0.18 52 1013.7
20260507154004 74 46 3.0 7.0 0.00 0.27 0.18 52 1013.8
20260507153004 75 334 3.0 9.0 0.00 0.27 0.18 52 1013.8
20260507152214 75 336 3.0 7.0 0.00 0.27 0.18 52 1013.9
20260507151004 75 336 3.0 7.0 0.00 0.27 0.18 52 1014.0
20260507150004 74 27 3.0 7.0 0.00 0.27 0.18 53 1014.0
20260507145217 74 19 3.0 7.0 0.00 0.27 0.18 54 1014.1
20260507144003 74 28 2.0 8.0 0.00 0.27 0.18 54 1014.1
20260507143003 75 256 2.0 5.0 0.00 0.27 0.18 52 1014.2
20260507142004 75 286 3.0 7.0 0.00 0.27 0.18 51 1014.3
20260507141003 74 275 4.0 10.0 0.00 0.27 0.18 52 1014.6
20260507140004 75 273 2.0 11.0 0.00 0.27 0.18 53 1014.7
20260507135003 76 302 2.0 6.0 0.00 0.27 0.18 52 1014.8
20260507134213 76 334 2.0 6.0 0.00 0.27 0.18 52 1014.9
20260507133004 75 270 2.0 5.0 0.00 0.27 0.18 49 1015.1
20260507132004 73 272 3.0 6.0 0.00 0.27 0.18 55 1015.2
20260507131003 73 255 4.0 8.0 0.00 0.27 0.18 53 1015.2
20260507130217 73 276 3.0 10.0 0.00 0.27 0.18 56 1015.4
20260507125003 74 290 2.0 4.0 0.00 0.27 0.18 59 1015.6
20260507124214 72 286 3.0 6.0 0.00 0.27 0.18 60 1015.6
20260507123004 72 294 3.0 6.0 0.00 0.27 0.18 63 1015.7
20260507122004 72 258 1.0 6.0 0.00 0.27 0.18 63 1015.7
20260507121008 72 339 1.0 4.0 0.00 0.27 0.18 63 1015.8
20260507120004 71 312 2.0 3.0 0.00 0.27 0.18 62 1015.8
20260507115004 71 274 2.0 4.0 0.00 0.27 0.18 62 1015.8
20260507114003 71 295 2.0 5.0 0.00 0.27 0.18 64 1015.9
20260507113004 70 266 1.0 5.0 0.00 0.27 0.18 65 1016.0
20260507112003 70 290 1.0 5.0 0.00 0.27 0.18 66 1016.1
20260507111003 70 274 2.0 4.0 0.00 0.27 0.18 67 1016.1
20260507110004 70 207 2.0 4.0 0.00 0.27 0.18 67 1016.1
20260507105003 69 296 1.0 4.0 0.00 0.27 0.18 68 1016.4
20260507104215 69 288 1.0 4.0 0.00 0.27 0.18 68 1016.3
20260507103003 70 273 1.0 4.0 0.00 0.27 0.18 69 1016.4
20260507102003 69 256 2.0 5.0 0.00 0.27 0.18 70 1016.6
20260507101213 69 248 2.0 4.0 0.00 0.27 0.18 70 1016.6
20260507100004 68 254 1.0 5.0 0.00 0.27 0.18 67 1016.8
20260507095004 68 306 2.0 4.0 0.00 0.27 0.18 70 1016.7
20260507094216 68 326 2.0 4.0 0.00 0.27 0.18 71 1016.8
20260507093216 67 60 3.0 6.0 0.00 0.27 0.18 72 1016.7
20260507092004 67 32 2.0 8.0 0.00 0.27 0.18 72 1016.7
20260507091004 68 33 2.0 6.0 0.00 0.27 0.18 73 1016.6
20260507090004 66 18 3.0 5.0 0.00 0.27 0.18 74 1016.6
20260507085003 67 347 3.0 7.0 0.00 0.27 0.18 73 1016.7
20260507084004 68 41 1.0 7.0 0.00 0.27 0.18 71 1016.8
20260507083217 68 12 1.0 4.0 0.00 0.27 0.18 71 1016.8
20260507082004 68 257 1.0 3.0 0.00 0.27 0.18 74 1016.8
20260507081003 66 92 1.0 2.0 0.00 0.27 0.18 75 1017.0
20260507080004 66 60 1.0 3.0 0.00 0.27 0.18 77 1017.0
20260507075003 65 67 2.0 4.0 0.00 0.27 0.18 79 1017.0
20260507074004 64 53 2.0 4.0 0.00 0.27 0.18 81 1016.9
20260507073004 63 29 1.0 5.0 0.00 0.27 0.18 83 1017.0
20260507072214 62 344 1.0 5.0 0.00 0.27 0.18 85 1017.1
20260507071003 61 339 2.0 3.0 0.00 0.27 0.18 89 1017.1
20260507070216 61 341 2.0 4.0 0.00 0.27 0.18 91 1017.0
20260507065004 61 337 1.0 3.0 0.00 0.27 0.18 92 1017.0
20260507064004 61 44 2.0 4.0 0.00 0.27 0.18 95 1016.9
20260507063004 60 44 1.0 4.0 0.00 0.27 0.18 95 1016.8
20260507062003 60 33 1.0 3.0 0.00 0.27 0.18 96 1016.7
20260507061003 59 36 1.0 4.0 0.00 0.27 0.18 96 1016.6
20260507060004 58 66 2.0 4.0 0.00 0.27 0.18 96 1016.7
20260507055217 58 57 2.0 5.0 0.00 0.28 0.18 96 1016.7
20260507054003 57 54 1.0 4.0 0.00 0.29 0.18 96 1016.7
20260507053214 57 64 2.0 3.0 0.00 0.30 0.18 96 1016.6
20260507052004 56 80 2.0 3.0 0.00 0.30 0.18 96 1016.6
20260507051004 56 72 2.0 3.0 0.00 0.30 0.18 96 1016.6
20260507050005 56 62 2.0 3.0 0.00 0.30 0.18 96 1016.4
20260507045213 56 57 2.0 4.0 0.00 0.30 0.18 96 1016.4
20260507044003 56 59 0.0 3.0 0.00 0.30 0.18 96 1016.3
20260507043004 56 0 0.0 0.0 0.00 0.30 0.18 96 1016.6
20260507042004 56 75 0.0 1.0 0.00 0.30 0.18 96 1016.6
20260507041004 56 77 1.0 2.0 0.00 0.30 0.18 96 1016.4
20260507040004 56 301 1.0 3.0 0.00 0.30 0.18 96 1016.3
20260507035213 56 281 1.0 3.0 0.00 0.30 0.18 96 1016.3
20260507034004 56 113 0.0 2.0 0.01 0.30 0.18 96 1016.2
20260507033004 56 64 1.0 2.0 0.01 0.30 0.18 96 1016.3
20260507032003 56 77 0.0 3.0 0.01 0.30 0.18 96 1016.2
20260507031003 56 82 0.0 1.0 0.01 0.30 0.18 96 1016.2
20260507030003 56 116 2.0 4.0 0.02 0.30 0.18 96 1016.3
20260507025214 56 127 2.0 4.0 0.02 0.30 0.18 96 1016.2
20260507024003 56 109 3.0 6.0 0.01 0.29 0.17 96 1016.5
20260507023003 56 114 3.0 7.0 0.01 0.29 0.17 95 1016.4
20260507022003 56 133 3.0 6.0 0.02 0.29 0.17 95 1016.3
20260507021003 56 109 3.0 7.0 0.02 0.29 0.17 95 1016.3
20260507020214 56 82 2.0 5.0 0.01 0.28 0.17 95 1016.3
20260507015008 56 53 2.0 3.0 0.02 0.28 0.17 95 1016.4
20260507014003 56 51 2.0 3.0 0.02 0.28 0.17 95 1016.3
20260507013003 56 35 1.0 3.0 0.04 0.28 0.17 95 1016.3
20260507012212 56 53 1.0 2.0 0.07 0.28 0.16 95 1016.3
20260507010004 56 246 0.0 1.0 0.13 0.28 0.16 95 1016.4
20260507005003 56 243 1.0 2.0 0.15 0.28 0.15 95 1016.5
20260507004003 56 242 2.0 5.0 0.14 0.28 0.14 94 1016.5
20260507003004 57 256 4.0 6.0 0.13 0.26 0.13 93 1016.6
20260507002004 57 260 3.0 7.0 0.08 0.21 0.08 92 1016.4
20260507001003 58 257 4.0 6.0 0.05 0.18 0.05 91 1016.4
20260507000004 58 254 4.0 8.0 0.02 0.16 0.02 90 1016.4
20260506235003 58 256 3.0 5.0 0.00 0.13 0.00 89 1016.4
20260506234004 59 249 3.0 7.0 0.00 0.13 0.00 89 1016.4
20260506233004 59 256 3.0 6.0 0.00 0.13 0.00 88 1016.2
20260506232003 59 227 2.0 7.0 0.00 0.13 0.00 86 1016.2
20260506230004 59 248 2.0 4.0 0.00 0.13 0.00 88 1016.1
20260506225216 59 241 1.0 4.0 0.01 0.13 0.00 88 1016.0
20260506224003 59 238 2.0 4.0 0.02 0.13 0.00 90 1016.0
20260506223003 59 260 1.0 3.0 0.02 0.13 0.00 89 1016.2
20260506222003 60 253 0.0 3.0 0.03 0.13 0.00 87 1016.2
20260506221215 60 157 2.0 4.0 0.04 0.13 0.00 85 1016.1